Location: Newark
(52.2583°N, 7.1190°W)
Time: 10:41:27
(UTC+00:00)

S-56A Canister/Altair - Pass Details

Date: 18 November 2019
Orbit: 632 x 2500 km, 38.9° (Epoch: 14 December)

Event Time Altitude Azimuth Distance (km) Brightness Sun altitude
Rises 17:56:23 0° 226° (SW) 5,006 12.9 -12.6°
Reaches altitude 10° 18:00:55 10° 214° (SW) 3,656 11.7 -13.2°
Maximum altitude 18:07:19 22° 168° (SSE) 2,316 10.0 -14.2°
Enters shadow 18:12:07 10° 120° (ESE) 2,685 9.9 -14.9°
